Location: Fawkham
(51.3667°N, 0.2833°E)
Time: 08:13:00
(UTC+00:00)

Daily predictions for brighter satellites

Satellite Brightness Start Highest point End
(mag) Time Altitude Azimuth Time Altitude Azimuth Time Altitude Azimuth
ATLAS 2AS CENTAUR R/B 2.9 20:18:17 10° SW 20:25:40 81° SE 20:32:46 10° NE
SPOT 3 Rocket 4.3 20:25:02 10° SE 20:29:47 39° ENE 20:34:32 10° N
Cosmos 1782 2.8 20:26:33 10° S 20:30:21 86° W 20:34:12 10° N
IRS-1A Rocket 4.4 20:26:52 10° SSE 20:32:29 72° ENE 20:38:03 10° NNW
Cosmos 1943 Rocket 3.1 20:28:01 10° NW 20:33:27 48° WSW 20:38:49 10° S
Cosmos 1420 Rocket 4.1 20:29:11 10° NNW 20:34:32 78° ENE 20:39:51 10° SSE
USA 281 3.7 20:28:28 10° SE 20:34:47 52° NE 20:41:08 10° NNW
Cosmos 1743 3.4 20:34:30 10° N 20:37:52 35° ENE 20:41:12 10° SE
Cosmos 2278 Rocket 4.0 20:33:16 10° NW 20:38:02 28° WSW 20:42:46 10° SSW
NOSS 3-1 (A) 4.3 20:31:44 10° NW 20:38:52 73° SW 20:47:35 10° SSE
ISS -3.7 20:35:39 10° W 20:39:00 83° N 20:42:20 10° E
Cosmos 972 4.4 20:35:52 10° S 20:40:43 69° ESE 20:45:41 10° NNE
USA 245 2.3 20:42:40 10° SSE 20:44:51 46° ENE 20:47:03 10° N
Cosmos 2297 3.9 20:39:50 10° NNW 20:45:37 73° ENE 20:51:20 10° SE
Cosmos 1634 Rocket 4.3 20:40:01 10° N 20:46:13 55° ENE 20:52:20 10° SSE
USA 290 2.7 20:46:55 10° NNW 20:50:06 55° WSW 20:53:15 10° S
Cosmos 2112 Rocket 4.2 20:45:02 10° S 20:50:10 52° ESE 20:55:19 10° NNE
Cosmos 1766 Rocket 3.8 20:46:36 10° N 20:51:01 60° ENE 20:55:24 10° SSE
Okean-O 3.6 20:48:14 10° S 20:52:27 45° W 20:56:42 10° NNW
USA 229 DEB 4.1 20:46:32 10° NW 20:53:49 74° NE 21:01:46 10° SE
USA 229 4.1 20:46:38 10° NW 20:53:55 74° NE 21:01:53 10° SE
Cosmos 2034 Rocket 4.2 20:49:02 10° NNW 20:55:15 77° W 21:01:29 10° S
Cosmos 1726 3.3 20:53:49 10° NNE 20:56:22 22° ENE 20:58:35 12° ESE
Cosmos-2242 4.3 20:52:27 10° SW 20:56:28 43° WNW 21:00:32 10° N
Spot 2 Rocket 3.5 20:54:17 10° SSE 20:59:17 72° ENE 21:04:20 10° NNW
Cosmos 1680 Rocket 3.5 20:55:07 10° SSW 21:00:23 72° ESE 21:05:39 10° NNE
USA 32 4.1 21:02:01 10° S 21:07:10 63° E 21:12:21 10° NNE
Cosmos 1933 4.5 21:05:24 10° SSW 21:09:11 44° WNW 21:13:01 10° N
Tsikada Rocket 4.0 21:03:26 10° S 21:09:35 78° E 21:15:52 10° NNE
CZ-4C R/B 4.2 21:06:39 10° N 21:10:12 49° WNW 21:13:53 10° SW
USA 276 1.8 21:12:00 10° W 21:14:06 40° SSW 21:15:14 21° SE
MetOp-A 4.2 21:11:24 14° SE 21:15:03 49° ENE 21:19:40 10° N
Cosmos 2263 4.3 21:09:25 10° NNW 21:15:06 71° ENE 21:20:00 14° SE
SL-16 R/B 2.2 21:10:04 10° SSW 21:15:43 76° ESE 21:21:26 10° NNE
Cosmos 2056 Rocket 4.0 21:13:04 10° NNW 21:18:24 60° WSW 21:23:28 11° S
MOS 1 Rocket 3.5 21:13:56 12° SSE 21:18:32 79° ENE 21:23:50 10° NNW
Lacrosse 5 2.9 21:14:33 10° WNW 21:19:08 34° SW 21:23:08 13° SSE
Cosmos 1536 3.6 21:16:00 10° N 21:19:37 36° ENE 21:22:15 16° SE
Cosmos 1624 Rocket 4.4 21:15:39 10° NNW 21:20:45 58° WSW 21:25:35 11° S
Lacrosse 5 rocket 1.3 21:16:57 10° SW 21:21:15 85° SSE 21:25:29 10° ENE
Ariane Rocket 3.1 21:16:49 11° SSE 21:21:44 79° WSW 21:26:50 10° NNW
Cosmos 1452 Rocket 3.9 21:17:24 10° NNW 21:22:35 54° ENE 21:26:45 15° SE
Cosmos 1408 Rocket 4.2 21:18:45 10° N 21:23:01 43° ENE 21:26:12 17° SE
Cosmos 44 3.8 21:18:21 10° NW 21:23:03 48° WSW 21:26:45 14° SSE
Spot 1 4.3 21:20:28 10° NNE 21:24:22 44° E 21:27:37 14° S
Cosmos 1340 4.4 21:24:28 10° NNE 21:26:55 18° ENE 21:28:49 12° ESE
Cosmos 2369 Rocket 2.3 21:22:12 10° NNW 21:27:48 77° WSW 21:32:23 16° SSE
Cosmos 2221 2.8 21:24:01 10° SSW 21:28:18 70° WNW 21:32:39 10° N
Cosmos 2084 3.8 21:27:48 10° NW 21:31:24 45° SW 21:33:53 18° SSE
FALCON 9 R/B 4.5 21:29:03 10° SW 21:35:04 29° SSE 21:50:53 10° ESE
USA 306 2.9 21:37:20 10° WNW 21:41:07 67° NNE 21:45:01 10° E
Cosmos 2237 Rocket 4.2 21:38:02 10° WSW 21:43:06 32° NW 21:48:13 10° NNE
Cosmos 921 Rocket 3.1 21:38:48 10° SSW 21:43:17 88° WNW 21:47:48 10° NNE
Okean 3 Rocket 3.7 21:40:19 10° NNW 21:44:44 73° W 21:48:05 17° S
GEOS 3 Rocket 3.5 21:41:11 10° NE 21:46:25 81° SE 21:51:33 10° SW
ATLAS 3B R/B 4.0 21:43:41 10° NW 21:50:40 36° WSW 21:57:02 12° S
Landsat 5 3.1 21:48:19 10° NNE 21:52:07 79° ESE 21:54:55 17° S
SL-8 R/B 4.5 21:50:06 10° SSW 21:54:10 29° SSE 21:58:14 10° E
Cosmos 1500 Rocket 3.6 21:51:06 10° N 21:55:26 66° ENE 21:57:58 24° SSE
Terra 3.1 21:52:52 10° SSW 21:57:08 34° W 22:01:26 10° NNW
Cosmos 1733 3.4 21:55:07 10° N 21:58:33 47° ENE 22:00:07 27° SE
Cosmos 1943 3.3 21:53:57 12° S 21:59:06 57° ESE 22:04:40 10° NE
ALOS 2 4.5 21:58:50 11° ESE 22:01:44 20° ENE 22:04:57 10° NNE
USA 234 3.8 21:55:36 10° E 22:02:02 61° NNE 22:08:28 10° WNW
Cosmos 1048 Rocket 3.9 21:59:01 13° SSW 22:03:35 69° ESE 22:08:41 10° NNE
Cosmos 1805 Rocket 3.6 21:59:58 10° N 22:04:21 68° ENE 22:06:48 25° SSE
H-2A R/B 3.5 22:02:30 19° ESE 22:04:48 34° ENE 22:08:37 10° N
Cosmos 1842 Rocket 3.9 22:01:41 12° SSW 22:05:45 67° WNW 22:10:11 10° N
Lacrosse 4 Rocket 3.5 22:03:28 10° NNW 22:06:36 21° NE 22:09:45 10° E
Cosmos 494 Rocket 3.9 22:01:40 10° SSW 22:06:46 86° WNW 22:11:56 10° NNE
Meteor 1-10 Rocket 4.2 22:02:23 14° S 22:07:21 85° ESE 22:13:03 10° NNE
Cosmos 1151 Rocket 3.7 22:08:37 25° SE 22:10:31 38° E 22:14:34 10° NNE
Meteor 2-9 Rocket 4.3 22:05:12 10° NNW 22:11:02 87° ENE 22:14:56 22° SSE
Cosmos 1302 Rocket 4.2 22:08:51 10° NNW 22:14:00 61° ENE 22:17:13 23° SE
Meteor 1-11 Rocket 3.9 22:08:41 10° NNW 22:14:17 72° W 22:18:13 21° S
ISS -3.6 22:12:20 10° W 22:15:35 53° SSW 22:16:32 37° SSE
Cosmos 1633 Rocket 4.4 22:11:59 10° N 22:15:53 29° ENE 22:18:08 19° ESE
Meteor 2-10 4.1 22:10:33 10° NNW 22:16:14 89° WSW 22:19:41 24° S
ATLAS 2AS CENTAUR R/B 4.2 22:10:24 10° W 22:17:14 42° NNW 22:23:49 10° NE
Meteor 1-19 Rocket 4.4 22:14:06 21° S 22:18:13 67° E 22:23:58 10° NNE
ARIANE 5 R/B 2.7 22:16:04 27° SSE 22:18:22 68° ENE 22:22:41 10° N
Cosmos 1340 Rocket 3.1 22:17:22 30° SSE 22:18:59 49° E 22:22:53 10° NNE
USA 59 Rocket 0.7 22:15:52 10° NW 22:19:23 46° NE 22:22:58 15° ESE
USA 281 4.0 22:14:24 16° S 22:19:24 43° WSW 22:25:40 10° NW
Cosmos 1331 Rocket 4.2 22:14:55 10° NNW 22:20:08 64° WSW 22:23:13 24° S
NOSS 2-1 (E) 4.2 22:16:44 10° NW 22:20:14 47° NE 22:23:50 15° ESE
MINOTAUR 4 R/B 3.9 22:18:59 10° NNE 22:21:54 46° E 22:22:22 41° SE
Cosmos 1110 Rocket 4.4 22:16:48 10° NNW 22:22:01 58° WSW 22:25:12 23° S
BREEZE-M DEB (TANK) 4.3 22:18:46 10° WSW 22:22:47 71° SSE 22:40:27 10° E
CZ-2C R/B 3.8 22:20:40 10° NNE 22:25:11 58° ESE 22:27:22 28° S
Cosmos 1726 3.6 22:26:58 10° NW 22:29:33 23° W 22:31:07 16° SW
NOSS 2-1 (D) 3.8 22:28:19 10° NW 22:31:53 59° NE 22:34:55 20° ESE
Nadezhda 4 Rocket 3.9 22:30:38 21° S 22:34:58 86° E 22:41:15 10° N
Cosmos 1805 3.1 22:35:09 10° N 22:38:52 76° ENE 22:40:09 39° SSE
IRIDIUM 106 4.3 22:36:46 10° N 22:42:01 79° E 22:44:45 29° SSE
Cosmos 1743 Rocket 4.0 22:41:29 10° NNW 22:45:45 53° W 22:47:56 27° SSW
Sich 1 3.8 22:46:16 10° NNW 22:50:24 44° W 22:52:35 24° SSW
Spot 2 4.4 22:50:57 30° SE 22:53:07 65° ENE 22:57:54 10° N
Cosmos 1975 2.7 22:51:52 10° N 22:55:50 89° ESE 22:57:09 41° S
Lacrosse 5 rocket 2.7 22:55:53 10° W 22:59:56 41° NNW 23:03:53 10° ENE
SL-16 R/B 4.3 22:55:37 10° W 23:00:26 28° NW 23:05:18 10° NNE
Cosmos 1340 3.4 22:58:09 10° NNW 23:01:19 36° W 23:02:14 30° SW
Cosmos 1603 3.8 22:57:29 16° SSW 23:02:08 81° WNW 23:07:54 10° NNE
Cosmos 1626 2.0 23:04:41 47° ESE 23:04:59 49° E 23:08:09 10° NNE
PSLV R/B 4.0 23:02:30 10° N 23:06:35 70° WNW 23:08:26 31° SSW
NOSS 2-1 (C) 3.4 23:03:25 10° NW 23:07:07 80° SW 23:09:08 33° SE
USA 267 3.6 23:01:01 10° ENE 23:07:12 43° SE 23:10:42 24° SSW
Cosmos 1674 4.1 23:07:50 21° E 23:08:14 22° E 23:10:58 10° NE
Meteor 1-27 Rocket 4.3 23:04:40 16° SW 23:08:52 52° WNW 23:14:18 10° N
Cosmos 1627 Rocket 4.5 23:05:12 27° S 23:08:54 83° E 23:15:15 10° NNE
Cosmos 2369 Rocket 4.3 23:08:01 10° WNW 23:10:52 14° W 23:13:44 10° SW
USA 306 2.8 23:11:07 10° WNW 23:14:53 48° SSW 23:15:15 47° SSW
Cosmos 2026 Rocket 4.0 23:12:22 27° S 23:16:07 88° WNW 23:22:26 10° N
Cosmos 1833 Rocket 4.0 23:17:10 21° SE 23:18:46 23° ESE 23:23:07 10° NE
Cosmos 220 Rocket 3.9 23:30:06 41° S 23:31:31 75° ESE 23:35:52 10° NNE
Cosmos 1515 Rocket 3.9 23:31:37 38° SSE 23:32:55 53° E 23:37:09 10° NNE
GP-B 4.5 23:30:18 10° NNE 23:34:10 28° E 23:35:54 22° ESE
Cosmos 1328 Rocket 3.6 23:33:10 37° SSW 23:34:50 74° W 23:39:12 10° N
SL-8 R/B 3.7 23:31:24 10° WSW 23:36:04 57° S 23:40:46 10° E
Cosmos 1553 Rocket 3.9 23:30:26 10° N 23:36:34 88° W 23:39:39 31° S
Meteor 1-18 Rocket 4.4 23:33:56 28° SSW 23:37:15 78° WNW 23:43:13 10° N
ALOS 2 2.8 23:36:13 38° SSW 23:37:41 60° W 23:42:03 10° NNW
Spot 4 4.4 23:37:28 31° SSW 23:39:17 45° W 23:43:51 10° NNW
H-2A R/B 3.7 23:38:30 24° SW 23:39:47 29° W 23:43:29 10° NW
Cosmos 1470 Rocket 3.6 23:35:48 10° NNW 23:40:16 72° W 23:41:47 40° S
Cosmos 1869 Rocket 4.5 23:36:57 10° N 23:41:04 40° ENE 23:42:59 26° SE
USA 234 3.2 23:38:51 12° SE 23:44:59 78° SSW 23:51:34 10° WNW
Lacrosse 4 Rocket 1.2 23:41:16 10° NW 23:45:20 76° WSW 23:46:29 46° SSE
Meteor 2-4 Rocket 4.2 23:42:30 23° SW 23:46:06 59° WNW 23:52:00 10° N
NOSS 8 (A) 4.2 23:46:21 57° SSW 23:46:58 81° SE 23:50:03 10° NE
Cosmos 1633 Rocket 4.1 23:49:37 10° NNW 23:53:39 35° W 23:55:08 27° SW
